CW0126 Weather Reports


Display with metric or nautical units.
time (UTC)temp
F
wind
direction
speed
MPH
gust
MPH
rain 1hr
in
rain 24hr
in
rain mn
in
humidity
%
barometer
mb
20260505200039 50 316 2.0 8.0 0.00 0.00 0.00 31 1015.2
20260505194542 50 302 1.0 8.0 0.00 0.00 0.00 30 1015.2
20260505193037 50 235 2.0 7.0 0.00 0.00 0.00 30 1015.0
20260505191543 51 0 0.0 4.0 0.00 0.00 0.00 29 1015.1
20260505190043 51 0 0.0 3.0 0.00 0.00 0.00 29 1014.8
20260505184547 51 0 0.0 3.0 0.00 0.00 0.00 28 1014.7
20260505183043 51 89 0.0 2.0 0.00 0.00 0.00 27 1014.8
20260505181535 52 0 0.0 1.0 0.00 0.00 0.00 28 1014.7
20260505180037 52 0 0.0 0.0 0.00 0.00 0.00 26 1014.9
20260505174540 52 0 0.0 0.0 0.00 0.00 0.00 26 1014.8
20260505173039 51 0 0.0 0.0 0.00 0.00 0.00 26 1014.7
20260505171537 51 0 0.0 2.0 0.00 0.00 0.00 27 1014.8
20260505170038 52 325 1.0 4.0 0.00 0.00 0.00 27 1014.7
20260505164535 52 338 1.0 4.0 0.00 0.00 0.00 26 1014.8
20260505163041 52 0 0.0 2.0 0.00 0.00 0.00 25 1014.8
20260505161540 52 0 1.0 2.0 0.00 0.00 0.00 24 1014.8
20260505153044 52 343 1.0 6.0 0.00 0.00 0.00 26 1015.2
20260505151544 53 51 1.0 2.0 0.00 0.00 0.00 26 1015.1
20260505124543 54 0 1.0 7.0 0.00 0.00 0.00 21 1015.0
20260505123042 55 0 0.0 4.0 0.00 0.00 0.00 20 1015.1
20260505121546 54 300 1.0 7.0 0.00 0.00 0.00 19 1015.2
20260505120038 54 302 2.0 9.0 0.00 0.00 0.00 17 1015.3
20260505114537 54 327 1.0 7.0 0.00 0.00 0.00 17 1015.3
20260505113042 54 0 1.0 8.0 0.00 0.00 0.00 17 1015.3
20260505111544 53 359 1.0 8.0 0.00 0.00 0.00 17 1015.4
20260505101544 52 177 2.0 6.0 0.00 0.00 0.00 12 1015.8
20260505100040 52 287 2.0 5.0 0.00 0.00 0.00 11 1015.8
20260505094538 52 159 1.0 6.0 0.00 0.00 0.00 8 1015.9
20260505093046 51 277 1.0 2.0 0.00 0.00 0.00 7 1016.0
20260505091537 51 338 0.0 0.0 0.00 0.00 0.00 3 1016.1
20260505090036 51 0 0.0 1.0 0.00 0.00 0.00 2 1016.0
20260505084540 51 88 0.0 2.0 0.00 0.00 0.00 100 1015.9
20260505083045 50 0 0.0 0.0 0.00 0.00 0.00 100 1016.0
20260505081537 50 0 0.0 0.0 0.00 0.00 0.00 100 1016.0
20260505080042 48 0 0.0 0.0 0.00 0.00 0.00 100 1015.9
20260505074537 46 0 0.0 2.0 0.00 0.00 0.00 100 1015.8
20260505073043 47 0 0.0 2.0 0.00 0.00 0.00 100 1016.0
20260505071540 46 0 0.0 0.0 0.00 0.00 0.00 100 1016.1
20260505070036 45 0 0.0 0.0 0.00 0.00 0.00 100 1016.1
20260505064537 44 0 0.0 0.0 0.00 0.00 0.00 100 1016.0
20260505063037 41 0 0.0 0.0 0.00 0.00 0.00 100 1016.3
20260505061608 38 0 0.0 0.0 0.00 0.00 0.00 100 1016.3
20260505060048 37 0 0.0 0.0 0.00 0.00 0.00 100 1016.2
20260505054546 36 0 0.0 0.0 0.00 0.00 0.00 100 1016.3
20260505053039 35 0 0.0 0.0 0.00 0.00 0.00 100 1016.3
20260505051537 36 0 0.0 0.0 0.00 0.00 0.00 100 1016.2
20260505041535 36 0 0.0 0.0 0.00 0.00 0.00 100 1016.0
20260505040052 36 0 0.0 0.0 0.00 0.00 0.00 100 1016.1
20260505034540 36 0 0.0 0.0 0.00 0.00 0.00 100 1016.0
20260505033033 36 0 0.0 0.0 0.00 0.00 0.00 100 1015.9
20260505031548 37 0 0.0 0.0 0.00 0.00 0.00 100 1015.8
20260505030041 37 0 0.0 0.0 0.00 0.00 0.00 100 1015.6
20260505024534 37 0 0.0 0.0 0.00 0.00 0.00 100 1015.6
20260505023034 38 0 0.0 1.0 0.00 0.00 0.00 100 1015.8
20260505021540 38 0 0.0 0.0 0.00 0.00 0.00 100 1015.7
20260505020039 39 0 0.0 0.0 0.00 0.00 0.00 100 1016.0
20260505014542 40 0 0.0 1.0 0.00 0.00 0.00 100 1015.9
20260505013034 41 0 0.0 0.0 0.00 0.00 0.00 100 1016.2
20260505011537 43 0 0.0 0.0 0.00 0.00 0.00 100 1016.3
20260505010036 45 0 0.0 0.0 0.00 0.00 0.00 100 1016.3
20260505004542 47 0 0.0 0.0 0.00 0.00 0.00 1 1016.3
20260505003038 49 0 0.0 0.0 0.00 0.00 0.00 7 1016.4
20260505001537 49 0 0.0 2.0 0.00 0.00 0.00 8 1016.4
20260505000047 49 0 0.0 0.0 0.00 0.00 0.00 10 1016.3
20260504234536 50 0 0.0 2.0 0.00 0.00 0.00 14 1016.3
20260504233036 51 33 0.0 5.0 0.00 0.00 0.00 14 1016.4
20260504231539 51 353 2.0 5.0 0.00 0.00 0.00 14 1016.4
20260504230040 51 0 0.0 5.0 0.00 0.00 0.00 12 1016.4
20260504224536 51 0 0.0 0.0 0.00 0.00 0.00 9 1016.5
20260504223037 51 0 0.0 0.0 0.00 0.00 0.00 8 1016.7
20260504221542 51 335 1.0 5.0 0.00 0.00 0.00 6 1016.7
20260504220048 51 52 2.0 5.0 0.00 0.00 0.00 4 1016.7
20260504214539 50 83 1.0 3.0 0.00 0.00 0.00 1 1016.7
20260504213050 51 125 2.0 7.0 0.00 0.00 0.00 2 1016.9
20260504211541 51 324 2.0 8.0 0.00 0.00 0.00 3 1016.8
20260504210043 51 344 2.0 7.0 0.00 0.00 0.00 100 1016.9
20260504204543 51 0 0.0 6.0 0.00 0.00 0.00 100 1016.7
20260504203040 51 0 2.0 7.0 0.00 0.00 0.00 100 1016.6
20260504201538 52 297 3.0 6.0 0.00 0.00 0.00 100 1016.3